[[{"header":{"parameterUnit":"m.s-1","parameterCategory":1,"la1":30.2991,"la2":30.254,"lo1":-89.0895,"lo2":-89.0444,"dy":0.0017,"dx":0.0017,"nx":28,"ny":28,"refTime":"2024-03-04T03:00:00:Z","depth":0,"parameterNumber":2,"parameterNumberName":"U-component_of_WINDS"},"data":[0,0,0,0,0,0,0,0,0,0,0,0,0,0,0,0,0,0,0,0,0,0,0,0,0,0,0,0,0,0,0,0,0,0,0,0,0,0,0,0,0,0,0,0,0,0,0,0,0,0,0,0,0,0,0,0,0,0,-4.5398,-4.5399,0,-4.5432,-4.5432,-4.5433,-4.5331,-4.5328,-4.5325,-4.5322,-4.5355,-4.5359,-4.5362,0,0,0,0,0,0,0,0,0,0,0,0,0,-4.5246,-4.5249,-4.5398,-4.5399,-4.5399,-4.5432,-4.5432,-4.5433,-4.5332,-4.5328,-4.5324,-4.532,-4.5354,-4.5358,-4.5363,0,0,0,0,0,0,0,0,0,0,0,0,0,-4.5299,-4.525,-4.5398,-4.5353,-4.5349,-4.5432,-4.5432,-4.5433,-4.5332,-4.5328,-4.5323,-4.5319,-4.5352,-4.5358,-4.5363,-4.5491,0,0,-4.5381,-4.5383,0,0,0,0,0,0,0,0,-4.5296,-4.5305,-4.5359,-4.5356,-4.5352,-4.5373,-4.539,-4.5452,-4.5334,-4.5339,-4.5322,-4.5316,-4.5364,-4.5369,-4.5385,-4.5493,-4.5494,-4.5381,-4.5384,-4.5387,-4.5389,0,0,0,0,0,0,0,-4.5292,-4.5303,-4.5411,-4.536,-4.5356,-4.533,-4.5333,-4.5402,-4.5377,-4.5338,-4.5331,-4.5336,-4.5362,-4.538,-4.5385,-4.5495,-4.5381,-4.5386,-4.5389,-4.5392,-4.5709,-4.5714,0,0,0,0,0,0,-4.5295,-4.53,-4.541,-4.5412,-4.5312,-4.5337,-4.5339,-4.5371,-4.5376,-4.5373,-4.534,-4.5331,-4.5373,-4.5379,-4.5386,-4.5536,-4.5387,-4.5392,-4.5395,-4.5704,-4.571,-4.5716,0,0,0,0,0,0,-4.5292,-4.5306,-4.5409,-4.5354,-4.5366,-4.5344,-4.538,-4.5374,-4.5392,-4.5378,-4.5373,-4.5363,-4.5369,-4.5378,-4.5466,-4.5535,-4.5395,-4.54,-4.5698,-4.5706,-4.5713,-4.5836,0,0,0,0,0,0,-4.5288,-4.5305,-4.5354,-4.5356,-4.5369,-4.5489,-4.5384,-4.5378,-4.5402,-4.5391,-4.5398,-4.5395,-4.5366,-4.5458,-4.5472,-4.5541,-4.5404,-4.5692,-4.5702,-4.5711,-4.5826,-4.5847,-4.5866,0,0,0,0,0,-4.5283,-4.5387,-4.5357,-4.537,-4.5429,-4.5493,-4.55,-4.5465,-4.5408,-4.5457,-4.5448,-4.5395,-4.5526,-4.5468,-4.5482,-4.5554,-4.5687,-4.5699,-4.571,-4.5817,-4.5843,-4.5865,0,0,0,0,0,0,-4.5392,-4.5386,-4.5353,-4.5461,-4.5478,-4.5476,-4.5535,-4.5494,-4.5528,-4.5516,-4.5471,-4.5473,-4.5569,-4.5571,-4.5506,-4.5678,-4.5597,-4.5612,-4.5674,-4.5698,-4.5717,-4.5714,-4.5409,0,0,0,0,0,-4.5429,-4.5481,-4.5474,-4.557,-4.558,-4.5557,-4.5583,-4.5555,-4.5571,-4.5578,-4.5575,-4.5593,-4.5638,-4.5668,-4.5709,-4.5827,-4.5826,-4.5883,-4.5903,-4.5919,-4.5932,-4.5994,-4.6018,-4.5753,-4.5753,-4.5753,0,0,-4.5504,-4.5508,-4.5544,-4.5592,-4.5602,-4.5657,-4.5564,-4.5626,-4.5666,-4.5587,-4.567,-4.5669,-4.5686,-4.5789,-4.5834,-4.5793,-4.6006,-4.5934,-4.5947,-4.595,-4.6008,-4.6033,-4.6055,-4.5761,-4.5759,-4.5758,0,0,-4.5671,-4.568,-4.576,-4.5773,-4.579,-4.5774,-4.5794,-4.5799,-4.5795,-4.5878,-4.582,-4.5867,-4.5946,-4.596,-4.5977,-4.6152,-4.6104,-4.6166,-4.6268,-4.6329,-4.635,-4.6368,-4.6429,-4.6452,-4.6179,-4.618,-4.618,0,-4.5762,-4.5844,-4.5806,-4.5873,-4.5895,-4.5828,-4.5909,-4.5923,-4.5953,-4.597,-4.5924,-4.6022,-4.6028,-4.6134,-4.6176,-4.6193,-4.6214,-4.6164,-4.635,-4.6368,-4.6385,-4.6442,-4.6465,-4.6187,-4.6186,-4.6185,-4.6185,0,-4.5955,-4.6013,-4.6076,-4.6107,-4.6137,-4.6211,-4.6184,-4.6219,-4.619,-4.6179,-4.6264,-4.627,-4.631,-4.6334,-4.6305,-4.6435,-4.6409,-4.6358,-4.6274,-4.6418,-4.6471,-4.6493,-4.6198,-4.6195,-4.6193,-4.6191,0,0,-4.6188,-4.6199,-4.6223,-4.6236,-4.6252,-4.6295,-4.6366,-4.6407,-4.6437,-4.6461,-4.6518,-4.6588,-4.654,-4.656,-4.6533,-4.6587,-4.6723,-4.6528,-4.6528,-4.6563,-4.6866,-4.6903,-4.693,-4.6693,-4.6697,-4.67,-4.6864,0,-4.635,-4.6472,-4.6441,-4.6562,-4.6614,-4.6552,-4.6614,-4.663,-4.6623,-4.6666,-4.6657,-4.6707,-4.6641,-4.6653,-4.6704,-4.6696,-4.6783,-4.6684,-4.6745,-4.6748,-4.674,-4.6958,-4.6997,-4.7151,-4.6885,-4.6889,-4.6891,0,-4.6555,-4.6587,-4.6713,-4.6721,-4.6742,-4.6798,-4.6833,-4.6875,-4.6892,-4.6883,-4.6907,-4.6869,-4.6939,-4.6858,-4.6953,-4.6886,-4.691,-4.691,-4.6915,-4.6918,-4.6826,-4.6964,-4.72,-4.7222,-4.6924,-4.6921,-4.6919,0,-4.671,-4.6785,-4.687,-4.6884,-4.6895,-4.6936,-4.6943,-4.6955,-4.6982,-4.7013,-4.703,-4.7069,-4.7089,-4.712,-4.7094,-4.7038,-4.7194,-4.711,-4.7187,-4.7188,-4.722,-4.7218,-4.7461,-4.724,-4.7239,-4.7239,-4.7238,0,-4.6893,-4.6972,-4.694,-4.6992,-4.7079,-4.7044,-4.7131,-4.7131,-4.7143,-4.7194,-4.7144,-4.7192,-4.7156,-4.7201,-4.7181,-4.7263,-4.7273,-4.7267,-4.726,-4.727,-4.7271,-4.7283,-4.7271,-4.7245,-4.7244,-4.7242,-4.7241,0,-4.7079,-4.7061,-4.715,-4.7154,-4.7157,-4.7221,-4.7224,-4.7272,-4.7262,-4.7327,-4.734,-4.7324,-4.7375,-4.7353,-4.7407,-4.7394,-4.7498,-4.7478,-4.7492,-4.7486,-4.7563,-4.7556,-4.7821,-4.7853,-4.7613,-4.7616,-4.7618,0,-4.7196,-4.7255,-4.7267,-4.7298,-4.7308,-4.7358,-4.7385,-4.7354,-4.7385,-4.741,-4.7455,-4.7502,-4.7538,-4.7622,-4.7615,-4.7656,-4.7635,-4.7726,-4.7641,-4.7649,-4.7635,-4.763,-4.7636,-4.7742,-4.7745,-4.7747,-4.7749,0,-4.7404,-4.7393,-4.7435,-4.7474,-4.7508,-4.7538,-4.7562,-4.759,-4.756,-4.7597,-4.7649,-4.7677,-4.7733,-4.778,-4.7816,-4.7822,-4.7781,-4.7776,-4.7796,-4.7805,-4.781,-4.7806,-4.7536,-4.7769,-4.7767,-4.7766,-4.7765,-4.7764,-4.7558,-4.7608,-4.7624,-4.7672,-4.7688,-4.7713,-4.7758,-4.7755,-4.7798,-4.7841,-4.782,-4.7881,-4.7897,-4.7942,-4.7955,-4.8001,-4.7965,-4.7994,-4.8001,-4.8008,-4.8018,-4.7805,-4.8008,-4.8007,-4.8007,-4.8006,-4.8006,0,-4.7762,-4.777,-4.7815,-4.7852,-4.789,-4.785,-4.7875,-4.7909,-4.7964,-4.7983,-4.802,-4.808,-4.8126,-4.8124,-4.8166,-4.8204,-4.8186,-4.8216,-4.8211,-4.8213,-4.8048,-4.8026,-4.8229,-4.8229,-4.8229,-4.8229,-4.8229,-4.8229,-4.7872,-4.7955,-4.7946,-4.8036,-4.8043,-4.8102,-4.812,-4.8143,-4.8158,-4.8228,-4.8266,-4.8265,-4.8276,-4.8319,-4.8359,-4.8357,-4.8374,-4.8411,-4.8402,-4.8247,-4.8225,-4.8203,-4.8182,-4.8416,-4.8416,-4.8563,-4.8564,-4.8565]},{"header":{"parameterUnit":"m.s-1","parameterCategory":1,"la1":30.2991,"la2":30.254,"lo1":-89.0895,"lo2":-89.0444,"dy":0.0017,"dx":0.0017,"nx":28,"ny":28,"refTime":"2024-03-04T03:00:00:Z","depth":0,"parameterNumber":3,"parameterNumberName":"V-component_of_WINDS"},"data":[0,0,0,0,0,0,0,0,0,0,0,0,0,0,0,0,0,0,0,0,0,0,0,0,0,0,0,0,0,0,0,0,0,0,0,0,0,0,0,0,0,0,0,0,0,0,0,0,0,0,0,0,0,0,0,0,0,0,0.4059,0.4059,0,0.411,0.4111,0.4112,0.4181,0.4182,0.4183,0.4184,0.4232,0.4232,0.4233,0,0,0,0,0,0,0,0,0,0,0,0,0,0.4018,0.4018,0.4059,0.4059,0.406,0.411,0.4111,0.4112,0.418,0.4182,0.4183,0.4185,0.4232,0.4232,0.4233,0,0,0,0,0,0,0,0,0,0,0,0,0,0.4049,0.4018,0.4059,0.4101,0.4105,0.411,0.4111,0.4112,0.418,0.4182,0.4184,0.4185,0.4232,0.4232,0.4233,0.42,0,0,0.4234,0.4234,0,0,0,0,0,0,0,0,0.4047,0.405,0.4094,0.4098,0.4102,0.4141,0.4114,0.4141,0.418,0.4151,0.4184,0.4186,0.42,0.4203,0.4209,0.4202,0.4204,0.4234,0.4234,0.4234,0.4234,0,0,0,0,0,0,0,0.4045,0.4048,0.4079,0.4094,0.41,0.4116,0.4122,0.412,0.4165,0.4154,0.4159,0.4165,0.4203,0.4208,0.4211,0.4205,0.4234,0.4234,0.4234,0.4234,0.4176,0.4174,0,0,0,0,0,0,0.4037,0.4046,0.4077,0.4081,0.4079,0.4115,0.4123,0.4127,0.4166,0.4173,0.4163,0.4168,0.4207,0.421,0.4212,0.4178,0.4234,0.4234,0.4234,0.4177,0.4175,0.4174,0,0,0,0,0,0,0.4036,0.4039,0.4075,0.4065,0.4071,0.4114,0.4118,0.4127,0.4133,0.4172,0.4181,0.4161,0.4209,0.4212,0.4203,0.418,0.4234,0.4235,0.418,0.4177,0.4174,0.4107,0,0,0,0,0,0,0.4034,0.4038,0.4026,0.4064,0.4071,0.4066,0.4117,0.4127,0.4133,0.414,0.4172,0.4179,0.421,0.4202,0.4204,0.4182,0.4235,0.4182,0.4178,0.4175,0.4111,0.4103,0.4095,0,0,0,0,0,0.4032,0.4004,0.4025,0.4029,0.4057,0.4064,0.4068,0.4106,0.4131,0.412,0.4146,0.4178,0.4183,0.4201,0.4203,0.4181,0.4183,0.4179,0.4176,0.4115,0.4104,0.4095,0,0,0,0,0,0,0.3959,0.4009,0.4034,0.4017,0.4036,0.4076,0.4062,0.4092,0.4104,0.4109,0.4154,0.4161,0.4146,0.4163,0.4182,0.4152,0.4188,0.4184,0.4142,0.4132,0.4123,0.4119,0.4235,0,0,0,0,0,0.3942,0.3944,0.3987,0.3968,0.3977,0.4018,0.4022,0.405,0.4071,0.4079,0.4104,0.4122,0.4128,0.4131,0.4138,0.4115,0.4123,0.4101,0.4092,0.4085,0.4081,0.4072,0.4062,0.4161,0.4161,0.4161,0,0,0.3904,0.3932,0.393,0.3954,0.3972,0.3973,0.4024,0.4022,0.4023,0.4078,0.4072,0.4091,0.4115,0.4099,0.4093,0.4112,0.4056,0.408,0.4074,0.4074,0.4067,0.4057,0.4049,0.4158,0.4159,0.4159,0,0,0.3837,0.3858,0.3845,0.3863,0.3891,0.3919,0.3916,0.3952,0.3968,0.3963,0.4005,0.4007,0.4016,0.4031,0.404,0.3982,0.4013,0.3984,0.3939,0.3929,0.3922,0.3915,0.3895,0.3887,0.398,0.3979,0.3979,0,0.3786,0.379,0.3834,0.3831,0.384,0.3893,0.388,0.3895,0.3923,0.3929,0.395,0.3965,0.3984,0.3973,0.3959,0.3965,0.3963,0.3979,0.3919,0.3913,0.3908,0.3889,0.3881,0.3976,0.3976,0.3976,0.3977,0,0.3727,0.373,0.3716,0.3745,0.3753,0.3745,0.3787,0.379,0.3818,0.3843,0.3839,0.3864,0.3879,0.3879,0.3904,0.3872,0.3883,0.3911,0.3948,0.3894,0.3877,0.387,0.397,0.3972,0.3973,0.3974,0,0,0.3613,0.3668,0.3662,0.3677,0.3713,0.3716,0.3711,0.3727,0.3729,0.3747,0.3744,0.3752,0.378,0.379,0.3819,0.381,0.3764,0.3839,0.3841,0.3825,0.373,0.3709,0.37,0.3785,0.3784,0.3783,0.3729,0,0.3552,0.3548,0.3588,0.3572,0.3576,0.3627,0.3623,0.3645,0.3669,0.3675,0.3702,0.3707,0.3743,0.3749,0.3743,0.377,0.3745,0.3775,0.3781,0.3781,0.3774,0.3691,0.3668,0.3615,0.3722,0.3721,0.372,0,0.348,0.3497,0.3482,0.3522,0.3525,0.352,0.354,0.3545,0.3571,0.359,0.3603,0.3637,0.3635,0.3671,0.3669,0.3688,0.3693,0.3707,0.3706,0.3708,0.3747,0.369,0.3599,0.3591,0.371,0.3711,0.3712,0,0.3398,0.3418,0.3412,0.3423,0.3469,0.3465,0.3483,0.3511,0.352,0.3536,0.3542,0.3558,0.3566,0.3577,0.3615,0.3637,0.3608,0.3647,0.3623,0.3622,0.3613,0.3613,0.3522,0.3617,0.3617,0.3617,0.3618,0,0.3326,0.3315,0.3377,0.3373,0.3363,0.341,0.3398,0.3421,0.3446,0.3448,0.3493,0.3493,0.3543,0.3549,0.3578,0.3572,0.3575,0.359,0.3598,0.3586,0.3584,0.3589,0.3594,0.3615,0.3616,0.3616,0.3617,0,0.3232,0.3273,0.3271,0.3316,0.3327,0.3317,0.3355,0.3354,0.3382,0.3384,0.3387,0.3431,0.3441,0.348,0.3498,0.3518,0.3502,0.3518,0.3494,0.3499,0.3473,0.3475,0.3381,0.3372,0.3473,0.3472,0.3471,0,0.3183,0.3176,0.3222,0.3227,0.3245,0.3252,0.3262,0.3308,0.3316,0.3347,0.3342,0.3356,0.3369,0.3382,0.3415,0.343,0.3446,0.3412,0.3448,0.3437,0.3446,0.3445,0.3445,0.3404,0.3403,0.3402,0.3401,0,0.3092,0.3113,0.3126,0.3146,0.3157,0.3175,0.3195,0.3197,0.3249,0.3255,0.3267,0.3278,0.3298,0.3311,0.3332,0.3351,0.3384,0.339,0.3385,0.3372,0.3359,0.3366,0.3473,0.3391,0.3392,0.3393,0.3393,0.3394,0.3019,0.3016,0.3048,0.3062,0.3083,0.3101,0.3103,0.3133,0.3144,0.3166,0.3193,0.3201,0.3229,0.3261,0.3278,0.3285,0.3303,0.3296,0.3294,0.3292,0.3286,0.3359,0.3289,0.3289,0.3289,0.3289,0.329,0,0.293,0.2954,0.2966,0.2995,0.3005,0.3039,0.3064,0.307,0.3078,0.3102,0.3116,0.313,0.3144,0.3179,0.3197,0.3195,0.3211,0.3198,0.3198,0.3202,0.3268,0.3271,0.3185,0.3185,0.3185,0.3185,0.3185,0.3185,0.2885,0.2883,0.2908,0.2917,0.2941,0.2952,0.2963,0.2981,0.3001,0.3015,0.3028,0.3052,0.3081,0.3102,0.3116,0.3126,0.313,0.3112,0.3127,0.3187,0.3197,0.3207,0.321,0.3112,0.3112,0.3061,0.306,0.306]}]]